KSRB  Upper Cumberland Regional Airport

Add Bookmark

Sparta, Tennessee, United States

Status Useage
Operational Public
Latitude Longitude
36° 3' 24" N 85° 31' 48" W
36.056739 -85.530108
Local (DST -5) UTC (GMT -6)
Sep 19, 2014 06:46 Sep 19, 2014 11:46
Sunrise-Sunset Local UTC
Begin Civil Twilight 06:01 11:01
Sunrise 06:27 11:27
Sunset 06:44 23:44
End Civil Twilight 07:09 00:09

Current Weather

METAR Observed VFR
KSRB 191135Z AUTO 00000KT 8SM SCT050 12/12 A3007 Fri, Sep 19, 2014 @ 11:35 UTC
(11 Minutes ago)
Visual Flight Rules
Wind Visibility Clouds Conditions
Calm 8 statute miles
  • Scattered at 5,000' AGL
  • No significant weather
Temperatures Readings Precipitation
Current Temp 12°C (54°F)
Dewpoint 12°C (54°F)
Humidity 100%
Altimeter 30.07"Hg
Sea Level Pressure 1018mb
None Recorded

Additional weather within a 50nm radius of KSRB

Map ICAO Location
KCSV 22.5nm E (106°)
KRNC 26.3nm S (215°)
KMQY 48.1nm W (267°)

24 Hour Weather History

Loading
-

24 Hour Weather Graphs

Loading
-

CheckWX.com is intended as a tool to help pilots better visualize weather data. It is not intended as a substitute for an official weather briefing obtained from a Flight Service Station. CheckWX.com does not meet the FAA requirements for an official pre-flight weather briefing. Therefore, it's important that pilots still call and obtain an official FSS pre-flight weather briefing.